Location: Michelbach Markt
(48.1000°N, 15.7500°E)
Time: 03:45:55
(UTC+01:00)

ISS - Pass Details

Date: 03 December 2021
Orbit: 413 x 422 km, 51.6° (Epoch: 27 January)

Event Time Altitude Azimuth Distance (km) Brightness Sun altitude
Rises 18:34:38 0° 292° (WNW) 2,386 1.1 -24.1°
Reaches altitude 10° 18:36:47 10° 287° (WNW) 1,516 -0.1 -24.5°
Enters shadow 18:39:08 36° 260° (W) 688 -2.2 -24.9°
